Date String (YYYY-MM-DD hh:mm:ss) UTC,Instrument flags,Ambient pressure (hPa),Sample flow (lpm),Bypass flow (lpm),Sample temperature (°C),Ambient temperature (°C),ASC tube jacket temperature (°C),LED temperature (°C),Box temperature (°C),Sample RH (%),Span deviation,Mass concentration (μg/m³),Mass concentration (μg/m³),Mass concentration (μg/m³)
DateTimeUTC,F1_M11,P_M11,Q1_M11,Q2_M11,T1_M11,T2_M11,T3_M11,T4_M11,T5_M11,U1_M11,ZSPAN_M11,X2_M11,X0_M11,X1_M11
2022-04-26 10:00:00,,0830.1,5.00,0.00,23.8,22.8,00.0,32.8,25.5,13.6,0000.0,0004.39,0009.54,0003.80
2022-04-26 10:01:00,,0830.2,4.99,0.00,23.8,22.8,00.0,32.8,25.5,13.6,0000.0,0004.39,0009.86,0003.80
2022-04-26 10:02:00,,0830.1,4.99,0.00,23.8,22.8,00.0,32.8,25.5,13.6,0000.0,0004.36,0009.71,0003.79
2022-04-26 10:03:00,,0830.1,5.00,0.00,23.8,22.8,00.0,32.8,25.5,13.7,0000.0,0004.38,0010.26,0003.79
2022-04-26 10:04:00,,0830.1,5.01,0.00,23.8,22.8,00.0,32.8,25.5,13.7,0000.0,0004.35,0010.22,0003.77
2022-04-26 10:05:00,,0830.1,5.01,0.00,23.8,22.8,00.0,32.8,25.5,13.7,0000.0,0004.29,0010.04,0003.76
2022-04-26 10:06:00,,0830.1,5.00,0.00,23.8,22.8,00.0,32.8,25.5,13.6,0000.0,0004.27,0009.96,0003.75
2022-04-26 10:07:00,,0830.1,5.00,0.00,23.7,22.8,00.0,32.8,25.5,13.7,0000.0,0004.26,0009.73,0003.74
2022-04-26 10:08:00,,0830.0,5.00,0.00,23.7,22.8,00.0,32.8,25.5,13.7,0000.0,0004.25,0009.25,0003.73
2022-04-26 10:09:00,,0830.1,5.00,0.00,23.7,22.7,00.0,32.7,25.4,13.7,0000.0,0004.25,0008.86,0003.72
2022-04-26 10:10:00,,0830.0,4.99,0.00,23.7,22.7,00.0,32.7,25.4,13.8,0000.0,0004.29,0009.00,0003.71
2022-04-26 10:11:00,,0830.1,4.99,0.00,23.7,22.7,00.0,32.7,25.3,13.8,0000.0,0004.27,0008.82,0003.70
2022-04-26 10:12:00,,0830.0,5.00,0.00,23.7,22.7,00.0,32.7,25.3,13.9,0000.0,0004.23,0008.41,0003.69
2022-04-26 10:13:00,,0830.0,5.00,0.00,23.7,22.7,00.0,32.7,25.4,14.0,0000.0,0004.21,0008.24,0003.67
2022-04-26 10:14:00,,0830.0,5.00,0.00,23.7,22.6,00.0,32.7,25.4,14.0,0000.0,0004.18,0007.64,0003.65
2022-04-26 10:15:00,,0830.0,4.99,0.00,23.6,22.7,00.0,32.7,25.3,14.1,0000.0,0004.14,0008.10,0003.64
2022-04-26 10:16:00,,0830.1,5.00,0.00,23.6,22.6,00.0,32.7,25.3,14.1,0000.0,0004.14,0008.20,0003.61
2022-04-26 10:17:00,,0830.1,5.01,0.00,23.6,22.6,00.0,32.7,25.3,14.1,0000.0,0004.14,0008.22,0003.59
2022-04-26 10:18:00,,0830.1,4.99,0.00,23.6,22.6,00.0,32.7,25.3,14.2,0000.0,0004.11,0008.14,0003.57
2022-04-26 10:19:00,,0830.1,5.00,0.00,23.6,22.5,00.0,32.7,25.3,14.2,0000.0,0004.08,0008.24,0003.54
2022-04-26 10:20:00,,0830.0,5.00,0.00,23.6,22.5,00.0,32.6,25.3,14.3,0000.0,0004.06,0009.07,0003.53
2022-04-26 10:21:00,,0830.0,5.01,0.00,23.6,22.5,00.0,32.6,25.3,14.3,0000.0,0004.02,0009.24,0003.53
2022-04-26 10:22:00,,0830.0,4.99,0.00,23.6,22.5,00.0,32.6,25.2,14.3,0000.0,0003.99,0009.22,0003.51
2022-04-26 10:23:00,,0830.0,5.00,0.00,23.6,22.5,00.0,32.6,25.2,14.2,0000.0,0004.00,0009.31,0003.50
2022-04-26 10:24:00,,0830.0,5.02,0.00,23.5,22.5,00.0,32.6,25.2,14.3,0000.0,0003.99,0009.43,0003.48
2022-04-26 10:25:00,,0830.0,5.00,0.00,23.5,22.5,00.0,32.6,25.2,14.3,0000.0,0004.00,0009.43,0003.47
2022-04-26 10:26:00,,0829.9,4.99,0.00,23.5,22.5,00.0,32.6,25.2,14.3,0000.0,0004.04,0008.71,0003.47
2022-04-26 10:27:00,,0829.9,5.00,0.00,23.5,22.4,00.0,32.6,25.2,14.2,0000.0,0004.02,0009.00,0003.47
2022-04-26 10:28:00,,0830.0,5.00,0.00,23.5,22.4,00.0,32.6,25.2,14.2,0000.0,0003.98,0009.19,0003.46
2022-04-26 10:29:00,,0830.0,5.00,0.00,23.5,22.5,00.0,32.6,25.2,14.2,0000.0,0003.98,0009.30,0003.47
2022-04-26 10:30:00,,0830.0,5.00,0.00,23.5,22.5,00.0,32.6,25.2,14.2,0000.0,0004.00,0009.31,0003.48
2022-04-26 10:31:00,,0830.0,5.00,0.00,23.5,22.5,00.0,32.5,25.1,14.2,0000.0,0004.03,0008.94,0003.49
2022-04-26 10:32:00,,0830.0,5.00,0.00,23.5,22.5,00.0,32.5,25.1,14.2,0000.0,0004.03,0008.95,0003.48
2022-04-26 10:33:00,,0830.0,5.01,0.00,23.4,22.5,00.0,32.5,25.1,14.2,0000.0,0004.02,0009.34,0003.47
2022-04-26 10:34:00,,0830.0,5.00,0.00,23.4,22.4,00.0,32.5,25.1,14.2,0000.0,0004.01,0009.48,0003.46
2022-04-26 10:35:00,,0829.9,4.99,0.00,23.4,22.4,00.0,32.5,25.1,14.2,0000.0,0004.01,0009.37,0003.47
2022-04-26 10:36:00,,0829.9,5.00,0.00,23.4,22.4,00.0,32.5,25.1,14.2,0000.0,0003.99,0009.30,0003.46
2022-04-26 10:37:00,,0829.9,5.00,0.00,23.4,22.4,00.0,32.5,25.1,14.2,0000.0,0003.98,0009.31,0003.46
2022-04-26 10:38:00,,0829.9,4.99,0.00,23.4,22.4,00.0,32.5,25.1,14.2,0000.0,0003.97,0009.00,0003.45
2022-04-26 10:39:00,,0830.0,5.00,0.00,23.4,22.4,00.0,32.5,25.1,14.3,0000.0,0003.97,0008.63,0003.43
2022-04-26 10:40:00,,0830.0,5.00,0.00,23.4,22.4,00.0,32.4,25.1,14.3,0000.0,0003.98,0008.65,0003.42
2022-04-26 10:41:00,,0830.0,5.01,0.00,23.4,22.4,00.0,32.4,25.1,14.3,0000.0,0003.95,0008.39,0003.40
2022-04-26 10:42:00,,0829.9,4.99,0.00,23.4,22.4,00.0,32.4,25.1,14.3,0000.0,0003.90,0008.05,0003.37
2022-04-26 10:43:00,,0829.9,4.99,0.00,23.4,22.4,00.0,32.4,25.1,14.3,0000.0,0003.86,0008.10,0003.35
2022-04-26 10:44:00,,0829.9,5.00,0.00,23.3,22.4,00.0,32.4,25.1,14.3,0000.0,0003.83,0007.80,0003.33
2022-04-26 10:45:00,,0829.9,5.00,0.00,23.3,22.4,00.0,32.4,25.0,14.3,0000.0,0003.83,0007.66,0003.33
2022-04-26 10:46:00,,0829.8,5.00,0.00,23.3,22.3,00.0,32.4,25.0,14.3,0000.0,0003.82,0007.65,0003.31
2022-04-26 10:47:00,,0829.8,5.00,0.00,23.3,22.3,00.0,32.4,25.0,14.3,0000.0,0003.80,0007.60,0003.30
2022-04-26 10:48:00,,0829.8,4.99,0.00,23.3,22.3,00.0,32.4,25.1,14.3,0000.0,0003.75,0007.72,0003.29
2022-04-26 10:49:00,,0829.8,5.00,0.00,23.3,22.3,00.0,32.4,25.1,14.3,0000.0,0003.73,0008.72,0003.29
2022-04-26 10:50:00,,0829.8,5.00,0.00,23.3,22.4,00.0,32.3,25.0,14.3,0000.0,0003.73,0008.67,0003.30
2022-04-26 10:51:00,,0829.7,5.00,0.00,23.3,22.3,00.0,32.3,25.0,14.3,0000.0,0003.74,0008.68,0003.31
2022-04-26 10:52:00,,0829.7,5.00,0.00,23.3,22.3,00.0,32.3,25.0,14.2,0000.0,0003.80,0008.87,0003.33
2022-04-26 10:53:00,,0829.7,5.00,0.00,23.3,22.3,00.0,32.3,25.0,14.2,0000.0,0003.83,0009.47,0003.34
2022-04-26 10:54:00,,0829.7,5.00,0.00,23.3,22.3,00.0,32.3,25.0,14.2,0000.0,0003.84,0009.10,0003.35
2022-04-26 10:55:00,,0829.7,5.01,0.00,23.3,22.2,00.0,32.3,25.0,14.3,0000.0,0003.87,0009.01,0003.36
2022-04-26 10:56:00,,0829.7,5.01,0.00,23.3,22.3,00.0,32.3,25.0,14.3,0000.0,0003.88,0008.98,0003.35
2022-04-26 10:57:00,,0829.6,4.99,0.00,23.2,22.2,00.0,32.3,25.0,14.3,0000.0,0003.94,0009.23,0003.36
2022-04-26 10:58:00,,0829.6,5.00,0.00,23.2,22.2,00.0,32.3,24.9,14.3,0000.0,0003.98,0009.45,0003.37
2022-04-26 10:59:00,,0829.6,5.00,0.00,23.2,22.2,00.0,32.3,24.9,14.3,0000.0,0004.01,0009.24,0003.38
